This is the latest recevied weather packets stored in our database for station/object KD7KCN-5. If no packets are shown the sender has not sent any weather packets the latest 10 day(s).
| Time | Temp. | Humidity | Pressure | Rain* | Wind** | Luminosity | Snow |
|---|---|---|---|---|---|---|---|
| 1777419729 | 16.11° C | 25% | 1014.8 hPa | 0 mm | - | 387 W/m² | - |
| 1777419131 | 15.56° C | 27% | 1014.9 hPa | 0 mm | - | 425 W/m² | - |
| 1777418530 | 15° C | 26% | 1014.9 hPa | 0 mm | - | 459 W/m² | - |
| 1777417930 | 15.56° C | 26% | 1015 hPa | 0 mm | - | 496 W/m² | - |
| 1777416731 | 15° C | 25% | 1015.2 hPa | 0 mm | - | 448 W/m² | - |
| 1777416129 | 16.11° C | 27% | 1015.3 hPa | 0 mm | - | 563 W/m² | - |
| 1777415530 | 15.56° C | 27% | 1015.3 hPa | 0 mm | - | 679 W/m² | - |
| 1777414930 | 15.56° C | 26% | 1015.2 hPa | 0 mm | - | 638 W/m² | - |
| 1777414330 | 16.11° C | 27% | 1015.3 hPa | 0 mm | - | 686 W/m² | - |
| 1777413730 | 16.11° C | 26% | 1015.6 hPa | 0 mm | - | 719 W/m² | - |
| 1777413129 | 16.67° C | 27% | 1015.9 hPa | 0 mm | - | 698 W/m² | - |
| 1777411930 | 15.56° C | 29% | 1016.1 hPa | 0 mm | - | 290 W/m² | - |
| 1777410730 | 15° C | 29% | 1016.3 hPa | 0 mm | - | 292 W/m² | - |
| 1777410130 | 14.44° C | 32% | 1016.4 hPa | 0 mm | - | 1002 W/m² | - |
| 1777409532 | 15° C | 34% | 1016.4 hPa | 0 mm | - | 239 W/m² | - |
| 1777408930 | 15° C | 33% | 1016.4 hPa | 0 mm | - | 483 W/m² | - |
| 1777408330 | 14.44° C | 34% | 1016.3 hPa | 0 mm | - | 381 W/m² | - |
| 1777406530 | 15° C | 32% | 1016.5 hPa | 0 mm | - | 206 W/m² | - |
| 1777405930 | 14.44° C | 35% | 1016.5 hPa | 0 mm | - | 1014 W/m² | - |
| 1777405330 | 14.44° C | 34% | 1016.6 hPa | 0 mm | - | 193 W/m² | - |
| 1777403530 | 15° C | 39% | 1016.9 hPa | 0 mm | - | 997 W/m² | - |
| 1777402331 | 13.89° C | 36% | 1017.3 hPa | 0 mm | - | 1143 W/m² | - |
| 1777401730 | 14.44° C | 36% | 1017.3 hPa | 0 mm | - | 336 W/m² | - |
| 1777401130 | 15° C | 36% | 1017.3 hPa | 0 mm | - | 1062 W/m² | - |
| 1777400530 | 15° C | 37% | 1017.3 hPa | 0 mm | - | 1044 W/m² | - |
* Rain latest hour (hover to see other rain measurements)
** Current wind speed in m/s (hover to see current wind gust speed)